TimeEST,TemperatureF,Dew PointF,Humidity,Sea Level PressureIn,VisibilityMPH,Wind Direction,Wind SpeedMPH,Gust SpeedMPH,PrecipitationIn,Events,Conditions,WindDirDegrees,DateUTC
12:54 AM,28.9,26.1,89,30.51,9.0,ESE,3.5,-,N/A,,Clear,120,2012-11-17 05:54:00
1:54 AM,30.0,27.0,88,30.53,8.0,Calm,Calm,-,N/A,,Partly Cloudy,0,2012-11-17 06:54:00
2:54 AM,28.0,26.1,92,30.55,6.0,Calm,Calm,-,N/A,,Partly Cloudy,0,2012-11-17 07:54:00
3:54 AM,27.0,25.0,92,30.56,6.0,Calm,Calm,-,N/A,,Partly Cloudy,0,2012-11-17 08:54:00
4:54 AM,27.0,24.1,89,30.58,8.0,SSE,3.5,-,N/A,,Clear,160,2012-11-17 09:54:00
5:54 AM,28.0,26.1,92,30.59,8.0,Calm,Calm,-,N/A,,Mostly Cloudy,0,2012-11-17 10:54:00
6:54 AM,30.0,28.0,92,30.61,9.0,SE,3.5,-,N/A,,Overcast,130,2012-11-17 11:54:00
7:54 AM,32.0,28.9,88,30.63,8.0,ESE,3.5,-,N/A,,Mostly Cloudy,110,2012-11-17 12:54:00
8:54 AM,33.1,30.0,89,30.65,9.0,ESE,3.5,-,N/A,,Mostly Cloudy,110,2012-11-17 13:54:00
9:54 AM,36.0,32.0,86,30.66,10.0,Calm,Calm,-,N/A,,Overcast,0,2012-11-17 14:54:00
10:54 AM,39.9,33.1,77,30.66,10.0,SE,3.5,-,N/A,,Mostly Cloudy,140,2012-11-17 15:54:00
11:54 AM,43.0,33.1,68,30.64,10.0,Calm,Calm,-,N/A,,Mostly Cloudy,0,2012-11-17 16:54:00
12:54 PM,46.0,33.1,61,30.63,10.0,Calm,Calm,-,N/A,,Mostly Cloudy,0,2012-11-17 17:54:00
1:54 PM,46.9,34.0,61,30.61,10.0,Calm,Calm,-,N/A,,Mostly Cloudy,0,2012-11-17 18:54:00
2:54 PM,48.0,34.0,58,30.62,10.0,Calm,Calm,-,N/A,,Mostly Cloudy,0,2012-11-17 19:54:00
3:54 PM,46.9,35.1,63,30.63,10.0,ENE,3.5,-,N/A,,Mostly Cloudy,60,2012-11-17 20:54:00
4:54 PM,42.1,33.1,70,30.63,10.0,Calm,Calm,-,N/A,,Scattered Clouds,0,2012-11-17 21:54:00
5:54 PM,37.0,30.9,79,30.64,10.0,Calm,Calm,-,N/A,,Partly Cloudy,0,2012-11-17 22:54:00
6:54 PM,35.1,30.9,85,30.64,10.0,Calm,Calm,-,N/A,,Partly Cloudy,0,2012-11-17 23:54:00
7:54 PM,33.1,28.9,85,30.64,10.0,SE,3.5,-,N/A,,Clear,130,2012-11-18 00:54:00
8:54 PM,32.0,28.9,88,30.65,8.0,East,4.6,-,N/A,,Clear,100,2012-11-18 01:54:00
9:54 PM,33.1,28.9,85,30.66,8.0,ESE,3.5,-,N/A,,Clear,120,2012-11-18 02:54:00
10:54 PM,33.1,28.9,85,30.66,8.0,SSE,3.5,-,N/A,,Clear,150,2012-11-18 03:54:00
11:54 PM,33.1,28.9,85,30.66,8.0,ESE,4.6,-,N/A,,Scattered Clouds,120,2012-11-18 04:54:00